FENGYUN 1C DEB, 30993

Orbit data source: Space-Track

FENGYUN 1C DEB, 30993 is space debris in SSO originally from a launch on Mon, 10 May 1999 UTC launched from the Taiyaun Space Center, China (TSC). Fengyun 1C debris stems from the Chinese weather satellite Fengyun-1C, which was intentionally destroyed by a Chinese anti-satellite missile in 2007. This event dramatically increased the amount of space debris, with thousands of trackable fragments posing hazards to satellites and human spaceflight. The Fengyun 1C debris cloud has become a focal point in discussions about space sustainability and the need for international regulations to prevent the creation of new debris.

Loading next visibility...
Identifier
30993, 1999-025BCK
Orbit
SSO
Country
Flag of CNCN / PRC
Related business
Manufacturer
Unknown
Mission
Spacecraft
Bus & Motor
Unknown
Mass
Unknown
Launch date (UTC)
1999-05-10 (27 years ago)
Launch vehicle
Unknown
Launch site
Taiyaun Space Center, China (TSC)
Object type
Payload
Rocket body
Debris
Shape & HBR
Unknown shape, 0.1 m
Radar Cross Section
Small (<0.1 m²)

Expand to show TLE details & history
Last TLE update: 7 hours ago

TLE from 7 hours ago
0 FENGYUN 1C DEB
1 30993U 99025BCK 26104.24439815  .00002469  00000-0  84851-3 0  9998
2 30993  98.8408 204.8761 0015625  20.1829   7.7074 14.36931727986788
Epoch: 2026-04-14T05:51Z
TLE epoch observation values (Epoch: 2026-04-14T05:51:56.000Z)
Latitude
27.59631°
Longitude
-90.16902°
Altitude
760.978 km
Speed
7.482 km/s
True Right ascension
13h 20m 57s
True Declination
27° 27' 20"
Sunlit
Object was in full shadow at epoch
Visualization orbit readout
Latitude
Unknown
Longitude
Unknown
Altitude
Unknown
Speed
Unknown
Apparent Right ascension
Unknown
Apparent Declination
Unknown
Sunlit
N/A
Visualization observer readout
Local Sidereal Time
19:12:43
Azimuth
Unknown
Elevation
Unknown
Doppler factor
Unknown
Orbital elements
Apogee altitude
776.959 km
Perigee altitude
754.634 km
Semi-major axis
7,143.933 km
Eccentricity
0.00156
Inclination
98.8408°
RAAN
204.8761°
Arg. of periapsis
20.1829°
True anomaly
7.73146°
Mean anomaly
7.7074°
Eccentric anomaly
7.71943°
Mean motion
3.59449 °/min
Orbital period
100.15 mins
BSTAR
0.00084851
Loading maneuver chart data...
Computing Atmospheric mass density...

Documentation

Showing up to 5 results
|